Weather History for Lewisburg, WV

Change the Weather History Date:

Tuesday, July 16, 2013

  Actual Average Record
Temperature  
Mean Temperature 73 °F 71 °F  
Max Temperature 86 °F 82 °F 98 °F (1988)
Min Temperature 60 °F 59 °F 46 °F (2001)
Degree Days  
Heating Degree Days 0    
Month to date heating degree days  
Since 1 June heating degree days  
Since 1 July heating degree days  
Cooling Degree Days 8    
Month to date cooling degree days  
Year to date cooling degree days  
Since 1 June cooling degree days  
Growing Degree Days 23 (Base 50)    
Moisture  
Dew Point 62 °F    
Average Humidity 76    
Maximum Humidity 94    
Minimum Humidity 37    
Precipitation  
Precipitation 0.07 in 0.14 in 0.94 in (1971)
Month to date precipitation 2.00  
Year to date precipitation 22.91  
Snow  
Snow 0.00 in - - ()
Month to date snowfall  
Since 1 June snowfall  
Since 1 July snowfall  
Snow Depth -    
Sea Level Pressure  
Sea Level Pressure 30.40 in    
Wind  
Wind Speed 1 mph (North)    
Max Wind Speed 15 mph    
Max Gust Speed 22 mph    
Visibility 8 miles    
Events Fog , Rain , Thunderstorm    
T = Trace of Precipitation, MM = Missing Value Source: NWS Daily Summary

Daily Weather History Graph

Daily Weather History Graph

Search for Another Location

Airport:

Trip Planner

Search our weather history database for the weather conditions in past years. The results will help you decide how hot, cold, wet, or windy it might be!

Date:

Astronomy

Jul. 16, 2013 Rise Set
Actual Time 6:12 AM EDT 8:42 PM EDT
Civil Twilight 5:41 AM EDT 9:13 PM EDT
Nautical Twilight 5:04 AM EDT 9:50 PM EDT
Astronomical Twilight 4:22 AM EDT 10:32 PM EDT
Moon 2:25 PM EDT (7/16) 12:37 AM EDT (7/16)
Length of Visible Light 15h 31m
Length of Day
14h 30m
First Quarter, 56% of the Moon is Illuminated
Jul 16
First Quarter
Jul 22
Full
Jul 29
Last Quarter
Aug 6
New
Aug 14
First Quarter

Hourly Weather History & Observations

Time (EDT) Temp. Heat Index Dew Point Humidity Pressure Visibility Wind Dir Wind Speed Gust Speed Precip Events Conditions
12:15 AM 68.0 °F - 62.6 °F 83% 30.41 in 10.0 mi Calm Calm - N/A   Clear
12:35 AM 68.0 °F - 62.6 °F 83% 30.41 in 10.0 mi Calm Calm - N/A   Clear
12:55 AM 66.2 °F - 62.6 °F 88% 30.41 in 10.0 mi Calm Calm - N/A   Clear
1:15 AM 64.4 °F - 62.6 °F 94% 30.41 in 10.0 mi Calm Calm - N/A   Clear
1:35 AM 64.4 °F - 62.6 °F 94% 30.41 in 10.0 mi Calm Calm - N/A   Clear
1:55 AM 64.4 °F - 62.6 °F 94% 30.41 in 10.0 mi Calm Calm - N/A   Clear
2:15 AM 64.4 °F - 62.6 °F 94% 30.41 in 10.0 mi Calm Calm - N/A   Clear
2:35 AM 64.4 °F - 62.6 °F 94% 30.40 in 10.0 mi Calm Calm - N/A   Clear
2:55 AM 64.4 °F - 60.8 °F 88% 30.41 in 10.0 mi Calm Calm - N/A   Clear
3:15 AM 62.6 °F - 60.8 °F 94% 30.40 in 10.0 mi Calm Calm - N/A   Clear
3:35 AM 62.6 °F - 60.8 °F 94% 30.40 in 10.0 mi Calm Calm - N/A   Clear
3:55 AM 62.6 °F - 60.8 °F 94% 30.40 in 10.0 mi Calm Calm - N/A   Clear
4:15 AM 62.6 °F - 60.8 °F 94% 30.40 in 10.0 mi Calm Calm - N/A   Clear
4:35 AM 62.6 °F - 60.8 °F 94% 30.40 in 10.0 mi Calm Calm - N/A   Clear
4:55 AM 62.6 °F - 59.0 °F 88% 30.40 in 0.5 mi Calm Calm - N/A Fog Fog
5:15 AM 62.6 °F - 59.0 °F 88% 30.41 in 0.5 mi Calm Calm - N/A Fog Fog
5:35 AM 62.6 °F - 60.8 °F 94% 30.41 in 0.2 mi Calm Calm - N/A Fog Fog
5:55 AM 62.6 °F - 60.8 °F 94% 30.42 in 0.5 mi Calm Calm - N/A Fog Fog
6:15 AM 60.8 °F - 59.0 °F 94% 30.42 in 0.8 mi Calm Calm - N/A   Overcast
6:35 AM 62.6 °F - 60.8 °F 94% 30.42 in 0.2 mi Calm Calm - N/A Fog Fog
6:55 AM 62.6 °F - 60.8 °F 94% 30.43 in 0.2 mi NNE 3.5 mph - N/A Fog Fog
7:15 AM 62.6 °F - 60.8 °F 94% 30.43 in 0.2 mi Calm Calm - N/A Fog Fog
7:35 AM 62.6 °F - 60.8 °F 94% 30.43 in 0.2 mi Calm Calm - N/A Fog Fog
7:55 AM 64.4 °F - 62.6 °F 94% 30.43 in 10.0 mi Calm Calm - N/A   Scattered Clouds
8:15 AM 64.4 °F - 62.6 °F 94% 30.44 in 0.8 mi NNE 3.5 mph - N/A   Overcast
8:35 AM 64.4 °F - 62.6 °F 94% 30.44 in 2.5 mi Calm Calm - N/A   Overcast
8:55 AM 66.2 °F - 64.4 °F 94% 30.44 in 10.0 mi Calm Calm - N/A   Scattered Clouds
9:15 AM 69.8 °F - 64.4 °F 83% 30.44 in 10.0 mi Calm Calm - N/A   Clear
9:35 AM 71.6 °F - 64.4 °F 78% 30.44 in 10.0 mi Calm Calm - N/A   Clear
9:55 AM 73.4 °F - 64.4 °F 73% 30.44 in 10.0 mi Calm Calm - N/A   Clear
10:15 AM 77.0 °F - 62.6 °F 61% 30.43 in 10.0 mi Calm Calm - N/A   Clear
10:35 AM 77.0 °F - 62.6 °F 61% 30.43 in 10.0 mi Calm Calm - N/A   Clear
10:55 AM 78.8 °F - 62.6 °F 57% 30.43 in 10.0 mi Calm Calm - N/A   Clear
11:15 AM 78.8 °F - 62.6 °F 57% 30.43 in 10.0 mi NNW 4.6 mph - N/A   Clear
11:55 AM 82.4 °F 82.9 °F 60.8 °F 48% 30.42 in 10.0 mi Calm Calm - N/A   Clear
12:15 PM 80.6 °F 81.1 °F 59.0 °F 48% 30.42 in 10.0 mi North 3.5 mph - N/A   Scattered Clouds
12:35 PM 82.4 °F 82.5 °F 59.0 °F 45% 30.41 in 10.0 mi NNE 6.9 mph - N/A   Clear
12:55 PM 82.4 °F 82.5 °F 59.0 °F 45% 30.41 in 10.0 mi Calm Calm - N/A   Clear
1:15 PM 82.4 °F 82.9 °F 60.8 °F 48% 30.40 in 10.0 mi NE 5.8 mph - N/A   Scattered Clouds
1:35 PM 84.2 °F 83.8 °F 59.0 °F 42% 30.40 in 10.0 mi Calm Calm - N/A   Scattered Clouds
1:55 PM 82.4 °F 82.5 °F 59.0 °F 45% 30.38 in 10.0 mi WNW 3.5 mph - N/A   Scattered Clouds
2:15 PM 82.4 °F 82.5 °F 59.0 °F 45% 30.38 in 10.0 mi Calm Calm - N/A   Scattered Clouds
2:35 PM 84.2 °F 83.8 °F 59.0 °F 42% 30.37 in 10.0 mi Calm Calm - N/A   Mostly Cloudy
2:55 PM 84.2 °F 83.8 °F 59.0 °F 42% 30.37 in 10.0 mi NW 3.5 mph - N/A   Scattered Clouds
3:15 PM 86.0 °F 84.9 °F 57.2 °F 37% 30.36 in 10.0 mi NW 4.6 mph - N/A   Clear
3:35 PM 86.0 °F 85.4 °F 59.0 °F 40% 30.36 in 10.0 mi West 5.8 mph - N/A   Scattered Clouds
4:55 PM 84.2 °F 83.8 °F 59.0 °F 42% 30.36 in 10.0 mi NNW 4.6 mph - N/A Thunderstorm Clear
5:15 PM 82.4 °F 82.9 °F 60.8 °F 48% 30.36 in 10.0 mi NNW 3.5 mph - N/A Thunderstorm Clear
5:35 PM 80.6 °F 81.8 °F 62.6 °F 54% 30.36 in 10.0 mi NNW 3.5 mph - N/A   Scattered Clouds
5:55 PM 78.8 °F - 62.6 °F 57% 30.36 in 10.0 mi North 3.5 mph - N/A Thunderstorm Scattered Clouds
6:15 PM 77.0 °F - 62.6 °F 61% 30.36 in 10.0 mi NNE 3.5 mph - N/A Thunderstorm Thunderstorm
6:35 PM 77.0 °F - 62.6 °F 61% 30.37 in 10.0 mi NNE 3.5 mph - N/A Thunderstorm Thunderstorm
6:55 PM 73.4 °F - 62.6 °F 69% 30.40 in 10.0 mi East 15.0 mph 21.9 mph N/A Rain , Thunderstorm Heavy Thunderstorms and Rain
7:15 PM 69.8 °F - 62.6 °F 78% 30.39 in 7.0 mi East 4.6 mph - 0.07 in Rain , Thunderstorm Light Thunderstorms and Rain
7:35 PM 69.8 °F - 64.4 °F 83% 30.38 in 10.0 mi Calm Calm - 0.07 in Thunderstorm Thunderstorm
7:55 PM 69.8 °F - 64.4 °F 83% 30.38 in 10.0 mi Calm Calm - 0.07 in   Clear
8:15 PM 69.8 °F - 64.4 °F 83% 30.38 in 10.0 mi Calm Calm - N/A Thunderstorm Clear
8:35 PM 69.8 °F - 64.4 °F 83% 30.40 in 7.0 mi Calm Calm - N/A Thunderstorm Clear
8:55 PM 68.0 °F - 64.4 °F 88% 30.39 in 5.0 mi Calm Calm - N/A   Scattered Clouds
9:15 PM 68.0 °F - 64.4 °F 88% 30.38 in 5.0 mi Calm Calm - N/A   Clear
9:35 PM 68.0 °F - 64.4 °F 88% 30.38 in 5.0 mi East 3.5 mph - N/A   Clear
9:55 PM 68.0 °F - 64.4 °F 88% 30.38 in 3.0 mi ENE 3.5 mph - N/A   Mist
10:15 PM 68.0 °F - 64.4 °F 88% 30.37 in 7.0 mi Calm Calm - N/A   Clear
10:35 PM 66.2 °F - 64.4 °F 94% 30.40 in 4.0 mi NE 3.5 mph - N/A Thunderstorm Clear
10:55 PM 68.0 °F - 64.4 °F 88% 30.40 in 7.0 mi NNE 6.9 mph - N/A   Clear
11:15 PM 66.2 °F - 64.4 °F 94% 30.40 in 2.0 mi Calm Calm - N/A   Overcast
11:35 PM 66.2 °F - 64.4 °F 94% 30.40 in 0.2 mi Calm Calm - N/A Fog Fog
11:55 PM 66.2 °F - 64.4 °F 94% 30.40 in 0.2 mi Calm Calm - N/A Fog Fog